Майлуу-Суу

Киргизия     41°15′49″N   72°28′06″E
темп.,
°C
ветер,
м/с
пор.,
м/с
влажн.,
%
обл.,
%
осадки,
мм/ч
давл.,
гПа
погр.,
м
14 апреля, ср
ср1400:00+9в117256 0.4 102214
03:00+9св227343 0.0 102022
06:00+8св22714 0.0 102014
09:00+11зюз115973 0.0 1020459
12:00+15зюз2250100 0.0 10171225
15:00+17юз32445 0.1 10141616
18:00+17юз214586 0.1 10141183
21:00+12ссв22610 0.1 101515
15 апреля, чт
чт1500:00+12св335319 0.1 101417
03:00+11св2257100 0.1 101313
06:00+10св3257100 0.1 101414
09:00+14ю1151100 0.2 1014312
12:00+17юз324621 0.3 10141292
15:00+19зюз324132 0.1 10121780
18:00+18зюз3341100 0.3 10121175
21:00+13св2256100 0.4 101515
16 апреля, пт
пт1600:00+12всв2259100 0.6 101415
03:00+11св3260100 0.0 101416
06:00+11св2258100 0.0 101515
09:00+14юз2152100 0.0 1015398
12:00+17зюз334831 0.3 10151167
15:00+19зюз433999 0.2 10141798
18:00+18зюз2337100 0.2 10131255
21:00+14св334610 0.0 101518
17 апреля, сб
сб1700:00+13всв3248100 0.0 101515
03:00+12всв3352100 0.0 101418
06:00+11всв3250100 0.0 101315
09:00+14вюв1146100 0.0 1013281
12:00+17ююз3241100 0.0 10121355
15:00+18юз3332100 0.0 10121770
18:00+17ююз2234100 0.0 10111394
21:00+14св2241100 0.0 101313
18 апреля, вс
вс1800:00+12ююв1143100 0.0 101412
03:00+10в2248100 0.0 101531
06:00+11в3351100 0.1 101672
09:00+9ююв4771100 0.8 10191077
12:00+9юв1570100 2.9 1020865
15:00+9вюв2371100 1.1 1020509
18:00+10вюв2372100 4.8 1020229
21:00+8з157799 2.6 1021277